KQA514 HKJK-DGAA

Flight info

Callsign KQA514
Flight time N/A
Altitude 40000
Route ANTUK2D NAKAT UL433 NN UL434 NLY UR984 DLA UP685 ARDEX UA601 TYE/N0470F240 L433 EREKA EREKA1B
Aircraft B788/H-SDE1E2E3FGHIJ2J3J4J5M1RWXYZ/LB1D1

Departure

Time N/A
Airport Jomo Kenyatta International Airport (HKJK)

Arrival

Time 2026-04-27 01:33
Airport Kotoka International Airport (DGAA)
Time Latitude Longitude Altitude Speed Heading
2026-04-27 00:34 4.86078 6.06038 33957 ft 488 kts 292°
2026-04-27 00:34 4.87335 6.02916 33957 ft 488 kts 292°
2026-04-27 00:34 4.89877 5.96602 33957 ft 487 kts 292°
2026-04-27 00:35 4.92402 5.90329 33957 ft 488 kts 292°
2026-04-27 00:35 4.94940 5.84020 33958 ft 488 kts 292°
2026-04-27 00:36 4.97474 5.77720 33958 ft 488 kts 292°
2026-04-27 00:36 5.00020 5.71389 33959 ft 490 kts 292°
2026-04-27 00:37 5.02561 5.65065 33959 ft 492 kts 292°
2026-04-27 00:37 5.05125 5.58701 33959 ft 493 kts 292°
2026-04-27 00:38 5.07721 5.52276 33960 ft 495 kts 292°
2026-04-27 00:38 5.10306 5.45878 33960 ft 496 kts 292°
2026-04-27 00:39 5.12906 5.39441 33965 ft 503 kts 292°
2026-04-27 00:39 5.15540 5.32913 33960 ft 504 kts 292°
2026-04-27 00:40 5.18155 5.26428 33958 ft 503 kts 292°
2026-04-27 00:40 5.20782 5.19913 33959 ft 503 kts 292°
2026-04-27 00:41 5.23391 5.13444 33959 ft 503 kts 292°
2026-04-27 00:41 5.26009 5.06950 33960 ft 503 kts 292°
2026-04-27 00:42 5.28630 5.00445 33960 ft 503 kts 292°
2026-04-27 00:42 5.31241 4.93972 33961 ft 503 kts 292°
2026-04-27 00:43 5.33864 4.87462 33961 ft 503 kts 291°
2026-04-27 00:43 5.36473 4.80980 33961 ft 502 kts 291°
2026-04-27 00:44 5.39086 4.74481 33961 ft 502 kts 291°
2026-04-27 00:44 5.41679 4.68028 33962 ft 502 kts 291°
2026-04-27 00:45 5.44286 4.61532 33962 ft 502 kts 291°
2026-04-27 00:45 5.46878 4.55050 33963 ft 502 kts 291°
2026-04-27 00:46 5.49465 4.48577 33963 ft 502 kts 291°
2026-04-27 00:46 5.52065 4.42065 33963 ft 502 kts 291°
2026-04-27 00:47 5.54651 4.35589 33964 ft 502 kts 291°
2026-04-27 00:47 5.57280 4.29002 33960 ft 502 kts 291°
2026-04-27 00:48 5.59856 4.22546 33960 ft 502 kts 291°
2026-04-27 00:48 5.62461 4.16016 33961 ft 502 kts 291°
2026-04-27 00:49 5.65044 4.09537 33961 ft 502 kts 291°
2026-04-27 00:49 5.67627 4.03055 33961 ft 502 kts 291°
2026-04-27 00:50 5.71498 3.93337 33962 ft 502 kts 291°
2026-04-27 00:51 5.74097 3.86808 33962 ft 502 kts 291°
2026-04-27 00:51 5.76778 3.80383 33963 ft 502 kts 292°
2026-04-27 00:52 5.79538 3.73945 33963 ft 502 kts 292°
2026-04-27 00:52 5.82287 3.67532 33963 ft 502 kts 292°
2026-04-27 00:53 5.85036 3.61115 33964 ft 502 kts 292°
2026-04-27 00:53 5.87790 3.54684 33964 ft 502 kts 292°
2026-04-27 00:54 5.90548 3.48243 33965 ft 502 kts 292°
2026-04-27 00:54 5.93308 3.41793 33965 ft 502 kts 292°
2026-04-27 00:55 5.96045 3.35394 33965 ft 502 kts 292°
2026-04-27 00:55 5.98797 3.28960 33961 ft 502 kts 292°
2026-04-27 00:56 6.01547 3.22529 33962 ft 502 kts 292°
2026-04-27 00:56 6.04295 3.16100 33962 ft 502 kts 292°
2026-04-27 00:57 6.07057 3.09632 33962 ft 502 kts 292°
2026-04-27 00:57 6.09796 3.03202 33962 ft 502 kts 293°
2026-04-27 00:58 6.12542 2.96759 33961 ft 501 kts 294°
2026-04-27 00:58 6.15267 2.90373 33961 ft 499 kts 294°
2026-04-27 00:59 6.17990 2.83996 33961 ft 498 kts 294°
2026-04-27 00:59 6.20719 2.77613 33962 ft 498 kts 294°
2026-04-27 01:00 6.23363 2.71209 33963 ft 498 kts 293°
2026-04-27 01:00 6.25959 2.64775 33963 ft 498 kts 293°
2026-04-27 01:01 6.28566 2.58309 33963 ft 498 kts 293°
2026-04-27 01:01 6.31151 2.51896 33964 ft 498 kts 293°
2026-04-27 01:02 6.33605 2.45388 33962 ft 499 kts 287°
2026-04-27 01:02 6.35085 2.38598 33962 ft 500 kts 275°
2026-04-27 01:03 6.34844 2.31655 33961 ft 501 kts 263°
2026-04-27 01:03 6.33877 2.24721 33960 ft 500 kts 261°
2026-04-27 01:04 6.33001 2.18981 33960 ft 501 kts 261°
2026-04-27 01:04 6.32471 2.15577 33936 ft 485 kts 261°
2026-04-27 01:04 6.31776 2.11155 33341 ft 491 kts 261°
2026-04-27 01:04 6.31242 2.07767 32621 ft 495 kts 261°
2026-04-27 01:05 6.30701 2.04344 31887 ft 491 kts 261°
2026-04-27 01:05 6.30177 2.01022 31160 ft 485 kts 261°
2026-04-27 01:05 6.29655 1.97722 30423 ft 478 kts 261°
2026-04-27 01:05 6.29135 1.94434 29675 ft 472 kts 261°
2026-04-27 01:06 6.28627 1.91221 28932 ft 466 kts 261°
2026-04-27 01:06 6.28122 1.88029 28264 ft 458 kts 261°
2026-04-27 01:06 6.27629 1.84913 27637 ft 450 kts 261°
2026-04-27 01:06 6.27144 1.81851 27011 ft 443 kts 261°
2026-04-27 01:07 6.26664 1.78822 26383 ft 436 kts 261°
2026-04-27 01:07 6.26193 1.75849 25761 ft 432 kts 261°
2026-04-27 01:07 6.25726 1.72899 25139 ft 428 kts 261°
2026-04-27 01:07 6.25257 1.69941 24512 ft 425 kts 261°
2026-04-27 01:08 6.24794 1.67023 23889 ft 423 kts 261°
2026-04-27 01:08 6.24334 1.64125 23267 ft 420 kts 261°
2026-04-27 01:08 6.23881 1.61272 22653 ft 416 kts 261°
2026-04-27 01:08 6.23426 1.58407 22115 ft 411 kts 261°
2026-04-27 01:09 6.22977 1.55578 21330 ft 411 kts 261°
2026-04-27 01:09 6.22531 1.52771 20563 ft 409 kts 261°
2026-04-27 01:09 6.22080 1.49936 19782 ft 406 kts 261°
2026-04-27 01:09 6.21639 1.47162 19013 ft 403 kts 261°
2026-04-27 01:10 6.21203 1.44421 18248 ft 400 kts 261°
2026-04-27 01:10 6.20764 1.41665 17472 ft 397 kts 261°
2026-04-27 01:10 6.20335 1.38971 16935 ft 388 kts 261°
2026-04-27 01:10 6.19914 1.36326 16464 ft 377 kts 261°
2026-04-27 01:11 6.19505 1.33756 16087 ft 368 kts 261°
2026-04-27 01:11 6.19089 1.31291 15716 ft 366 kts 258°
2026-04-27 01:11 6.18396 1.28639 15318 ft 367 kts 253°
2026-04-27 01:11 6.17633 1.26242 14952 ft 368 kts 251°
2026-04-27 01:12 6.16959 1.24313 14654 ft 368 kts 250°
2026-04-27 01:12 6.16273 1.22475 14371 ft 366 kts 249°
2026-04-27 01:12 6.15461 1.20408 14089 ft 364 kts 248°
2026-04-27 01:12 6.14574 1.18231 13786 ft 362 kts 247°
2026-04-27 01:13 6.13559 1.15802 13446 ft 359 kts 246°
2026-04-27 01:13 6.12584 1.13504 13120 ft 357 kts 246°
2026-04-27 01:13 6.11614 1.11238 12797 ft 355 kts 246°
2026-04-27 01:13 6.10630 1.08955 12469 ft 352 kts 246°
2026-04-27 01:14 6.09662 1.06715 12144 ft 350 kts 246°
2026-04-27 01:14 6.08689 1.04468 11817 ft 348 kts 246°
2026-04-27 01:14 6.07741 1.02275 11559 ft 345 kts 246°
2026-04-27 01:14 6.06899 1.00016 11326 ft 343 kts 252°
2026-04-27 01:15 6.06307 0.97696 11128 ft 342 kts 257°
2026-04-27 01:15 6.05827 0.95374 10929 ft 341 kts 258°
2026-04-27 01:15 6.05348 0.93044 10729 ft 340 kts 257°
2026-04-27 01:15 6.04853 0.90733 10529 ft 340 kts 257°
2026-04-27 01:16 6.04340 0.88401 10327 ft 339 kts 257°
2026-04-27 01:16 6.03833 0.86123 10129 ft 337 kts 257°
2026-04-27 01:16 6.03317 0.83820 9928 ft 336 kts 257°
2026-04-27 01:16 6.02806 0.81541 9728 ft 335 kts 257°
2026-04-27 01:17 6.02288 0.79235 9525 ft 334 kts 257°
2026-04-27 01:17 6.01780 0.76973 9343 ft 333 kts 257°
2026-04-27 01:17 6.01275 0.74730 9170 ft 332 kts 257°
2026-04-27 01:17 6.00762 0.72446 8968 ft 332 kts 257°
2026-04-27 01:18 6.00285 0.70207 8769 ft 331 kts 258°
2026-04-27 01:18 5.99826 0.67924 8567 ft 330 kts 258°
2026-04-27 01:18 5.99382 0.65674 8366 ft 328 kts 258°
2026-04-27 01:18 5.98938 0.63435 8166 ft 327 kts 258°
2026-04-27 01:19 5.98492 0.61201 7966 ft 326 kts 258°
2026-04-27 01:19 5.98043 0.58962 7765 ft 325 kts 258°
2026-04-27 01:19 5.97600 0.56755 7566 ft 324 kts 258°
2026-04-27 01:19 5.97147 0.54500 7362 ft 323 kts 258°
2026-04-27 01:20 5.96707 0.52312 7163 ft 322 kts 258°
2026-04-27 01:20 5.96261 0.50093 6961 ft 321 kts 258°
2026-04-27 01:20 5.95821 0.47907 6761 ft 320 kts 258°
2026-04-27 01:20 5.95378 0.45705 6599 ft 318 kts 258°
2026-04-27 01:21 5.94937 0.43517 6500 ft 318 kts 258°
2026-04-27 01:21 5.94500 0.41346 6400 ft 318 kts 258°
2026-04-27 01:21 5.94057 0.39149 6299 ft 318 kts 258°
2026-04-27 01:21 5.93625 0.37002 6200 ft 318 kts 258°
2026-04-27 01:22 5.93184 0.34814 6099 ft 317 kts 258°
2026-04-27 01:22 5.92748 0.32655 5998 ft 317 kts 258°
2026-04-27 01:22 5.92309 0.30477 5897 ft 316 kts 258°
2026-04-27 01:22 5.91869 0.28296 5795 ft 316 kts 258°
2026-04-27 01:23 5.91435 0.26145 5695 ft 315 kts 258°
2026-04-27 01:23 5.90999 0.23985 5594 ft 315 kts 258°
2026-04-27 01:23 5.90569 0.21854 5494 ft 314 kts 258°
2026-04-27 01:23 5.90132 0.19690 5392 ft 314 kts 258°
2026-04-27 01:24 5.89702 0.17556 5293 ft 313 kts 258°
2026-04-27 01:24 5.89265 0.15395 5192 ft 313 kts 258°
2026-04-27 01:24 5.88837 0.13275 5093 ft 312 kts 258°
2026-04-27 01:24 5.88412 0.11169 4980 ft 295 kts 258°
2026-04-27 01:25 5.88017 0.09207 4865 ft 278 kts 258°
2026-04-27 01:25 5.87644 0.07358 4749 ft 263 kts 258°
2026-04-27 01:25 5.87288 0.05597 4668 ft 254 kts 258°
2026-04-27 01:25 5.86936 0.03857 4568 ft 256 kts 258°
2026-04-27 01:26 5.86576 0.02083 4480 ft 256 kts 258°
2026-04-27 01:26 5.86223 0.00337 4400 ft 256 kts 258°
2026-04-27 01:26 5.85867 -0.01422 4173 ft 258 kts 258°
2026-04-27 01:26 5.85399 -0.03155 3861 ft 257 kts 246°
2026-04-27 01:27 5.84505 -0.04674 3565 ft 254 kts 234°
2026-04-27 01:27 5.83439 -0.06045 3532 ft 238 kts 228°
2026-04-27 01:27 5.82292 -0.07136 3527 ft 216 kts 217°
2026-04-27 01:27 5.81097 -0.07925 3510 ft 197 kts 210°
2026-04-27 01:28 5.79920 -0.08581 3533 ft 194 kts 208°
2026-04-27 01:28 5.78706 -0.09207 3535 ft 192 kts 205°
2026-04-27 01:28 5.77512 -0.09737 3520 ft 187 kts 202°
2026-04-27 01:28 5.76301 -0.10236 3283 ft 187 kts 202°
2026-04-27 01:29 5.75125 -0.10714 3055 ft 175 kts 202°
2026-04-27 01:29 5.74045 -0.11156 2817 ft 164 kts 202°
2026-04-27 01:29 5.72998 -0.11585 2599 ft 159 kts 202°
2026-04-27 01:29 5.71992 -0.11999 2391 ft 154 kts 202°
2026-04-27 01:30 5.71011 -0.12403 2187 ft 150 kts 202°
2026-04-27 01:30 5.70053 -0.12797 1995 ft 149 kts 202°
2026-04-27 01:30 5.69088 -0.13194 1805 ft 149 kts 202°
2026-04-27 01:30 5.68129 -0.13589 1613 ft 150 kts 202°
2026-04-27 01:31 5.67162 -0.13987 1415 ft 150 kts 202°
2026-04-27 01:31 5.66196 -0.14385 1214 ft 150 kts 202°
2026-04-27 01:31 5.65209 -0.14791 1009 ft 149 kts 202°
2026-04-27 01:31 5.64261 -0.15182 810 ft 148 kts 202°
2026-04-27 01:32 5.63309 -0.15574 612 ft 148 kts 202°
2026-04-27 01:32 5.62357 -0.15963 419 ft 147 kts 202°
2026-04-27 01:32 5.61413 -0.16350 250 ft 146 kts 203°
2026-04-27 01:32 5.60549 -0.16711 219 ft 117 kts 202°
2026-04-27 01:33 5.59922 -0.16969 218 ft 75 kts 202°
2026-04-27 01:33 5.59564 -0.17115 218 ft 41 kts 202°
2026-04-27 01:33 5.59336 -0.17209 218 ft 30 kts 203°
2026-04-27 01:33 5.59191 -0.17297 218 ft 26 kts 238°
2026-04-27 01:34 5.59203 -0.17417 218 ft 16 kts 316°
2026-04-27 01:34 5.59315 -0.17428 218 ft 17 kts 23°
2026-04-27 01:34 5.59435 -0.17377 218 ft 21 kts 21°
2026-04-27 01:34 5.59585 -0.17317 218 ft 18 kts 22°
2026-04-27 01:35 5.59707 -0.17267 218 ft 19 kts 22°
2026-04-27 01:35 5.59851 -0.17207 218 ft 25 kts 22°
2026-04-27 01:35 5.59985 -0.17152 218 ft 18 kts 22°
2026-04-27 01:35 5.60065 -0.17149 218 ft 9 kts 328°
2026-04-27 01:36 5.60092 -0.17194 218 ft 2 kts 290°
2026-04-27 01:36 5.60098 -0.17211 218 ft 0 kts 291°